E25RIV-1 Weather Reports


Display with metric or nautical units.
time (UTC)temp
F
wind
direction
speed
MPH
gust
MPH
rain 1hr
in
rain 24hr
in
rain mn
in
humidity
%
barometer
mb
20260505041142 92 0 0.0 0.0 0.00 0.00 0.00 67 1002.0
20260505040118 92 0 0.0 0.0 0.00 0.00 0.00 73 1004.0
20260505035054 91 0 0.0 0.0 0.00 0.00 0.00 76 1005.0
20260505034033 91 0 0.0 0.0 0.00 0.00 0.00 76 1005.0
20260505033006 91 0 0.0 0.0 0.00 0.00 0.00 75 1004.0
20260505031942 91 0 0.0 0.0 0.00 0.00 0.00 84 1006.0
20260505030918 92 0 0.0 0.0 0.00 0.00 0.00 72 1004.0
20260505025854 92 0 0.0 0.0 0.00 0.00 0.00 78 1005.0
20260505024830 91 0 0.0 0.0 0.00 0.00 0.00 78 1004.0
20260505023806 90 0 0.0 0.0 0.00 0.00 0.00 83 1005.0
20260505022742 88 0 0.0 0.0 0.00 0.00 0.00 94 1006.0
20260505021718 87 0 0.0 0.0 0.00 0.00 0.00 99 1007.0
20260505020654 85 0 0.0 0.0 0.00 0.00 0.00 99 1007.0
20260505015630 84 0 0.0 0.0 0.00 0.00 0.00 99 1007.0
20260505014606 83 0 0.0 0.0 0.00 0.00 0.00 99 1007.0
20260505013542 82 0 0.0 0.0 0.00 0.00 0.00 99 1007.0
20260505012518 81 0 0.0 0.0 0.00 0.00 0.00 99 1007.0
20260505011454 80 0 0.0 0.0 0.00 0.00 0.00 99 1006.0
20260505010430 80 0 0.0 0.0 0.00 0.00 0.00 99 1006.0
20260505005406 79 0 0.0 0.0 0.00 0.00 0.00 99 1006.0
20260505004342 79 0 0.0 0.0 0.00 0.00 0.00 99 1006.0
20260505003318 78 0 0.0 0.0 0.00 0.00 0.00 99 1006.0
20260505002253 79 0 0.0 0.0 0.00 0.00 0.00 99 1006.0
20260505001230 78 0 0.0 0.0 0.00 0.00 0.00 99 1006.0
20260505000205 78 0 0.0 0.0 0.00 0.00 0.00 99 1006.0
20260504231402 78 0 0.0 0.0 0.00 0.00 0.00 99 1005.0
20260504225835 78 0 0.0 0.0 0.00 0.00 0.00 99 1005.0
20260504224811 78 0 0.0 0.0 0.00 0.00 0.00 99 1005.0
20260504224323 78 0 0.0 0.0 0.00 0.00 0.00 99 1005.0
20260504223259 77 0 0.0 0.0 0.00 0.00 0.00 99 1005.0
20260504222235 77 0 0.0 0.0 0.00 0.00 0.00 99 1005.0
20260504221211 77 0 0.0 0.0 0.00 0.00 0.00 99 1005.0
20260504220147 77 0 0.0 0.0 0.00 0.00 0.00 99 1005.0
20260504215123 77 0 0.0 0.0 0.00 0.00 0.00 99 1005.0
20260504214059 77 0 0.0 0.0 0.00 0.00 0.00 99 1005.0
20260504213035 77 0 0.0 0.0 0.00 0.00 0.00 99 1005.0
20260504212011 77 0 0.0 0.0 0.00 0.00 0.00 99 1005.0
20260504210947 78 0 0.0 0.0 0.00 0.00 0.00 99 1005.0
20260504205923 78 0 0.0 0.0 0.00 0.00 0.00 99 1005.0
20260504204900 78 0 0.0 0.0 0.00 0.00 0.00 99 1005.0
20260504203835 78 0 0.0 0.0 0.00 0.00 0.00 99 1005.0
20260504202812 78 0 0.0 0.0 0.00 0.00 0.00 99 1005.0
20260504201747 78 0 0.0 0.0 0.00 0.00 0.00 99 1005.0
20260504200724 78 0 0.0 0.0 0.00 0.00 0.00 99 1005.0
20260504195659 78 0 0.0 0.0 0.00 0.00 0.00 99 1005.0
20260504194635 78 0 0.0 0.0 0.00 0.00 0.00 99 1005.0
20260504193611 78 0 0.0 0.0 0.00 0.00 0.00 99 1005.0
20260504192547 78 0 0.0 0.0 0.00 0.00 0.00 99 1005.0
20260504191523 78 0 0.0 0.0 0.00 0.00 0.00 99 1005.0
20260504190459 78 0 0.0 0.0 0.00 0.00 0.00 99 1005.0
20260504185435 78 0 0.0 0.0 0.00 0.00 0.00 99 1005.0
20260504184411 78 0 0.0 0.0 0.00 0.00 0.00 99 1006.0
20260504183348 78 0 0.0 0.0 0.00 0.00 0.00 99 1005.0
20260504182324 79 0 0.0 0.0 0.00 0.00 0.00 99 1006.0
20260504181300 79 0 0.0 0.0 0.00 0.00 0.00 99 1006.0
20260504180236 78 0 0.0 0.0 0.00 0.00 0.00 99 1006.0
20260504175212 78 0 0.0 0.0 0.00 0.00 0.00 99 1006.0
20260504174148 78 0 0.0 0.0 0.00 0.00 0.00 99 1006.0
20260504173124 79 0 0.0 0.0 0.00 0.00 0.00 99 1006.0
20260504172100 79 0 0.0 0.0 0.00 0.00 0.00 99 1006.0
20260504171036 78 0 0.0 0.0 0.00 0.00 0.00 99 1007.0
20260504150548 80 0 0.0 0.0 0.00 0.00 0.00 99 1007.0
20260504140324 79 0 0.0 0.0 0.00 0.00 0.00 99 1005.0
20260504110637 78 0 0.0 0.0 0.00 0.00 0.00 99 1003.0
20260504050436 99 0 0.0 0.0 0.00 0.00 0.00 50 994.0